Snowfall_Accumulation
nan nan nan nan nan nan nan nan nan nan nan nan nan nan nan nan nan 0.0 0.0 0.0 0.0 nan nan 0.0 0.0 0.0 0.0 0.0 0.0 0.0 0.0 0.0 0.0 0.0 0.0 0.0 0.0 0.0 0.0 0.0 0.0 0.0 0.0 0.0 0.0
nan nan nan nan nan nan nan nan nan nan nan nan nan nan nan nan 0.0 0.0 nan nan nan nan 0.0 0.0 0.0 0.0 0.0 0.0 0.0 0.0 0.0 0.0 0.0 0.0 0.0 0.0 0.0 0.0 0.0 0.0 0.0 0.0 0.0 0.0 0.0
nan nan nan nan nan nan nan nan nan nan nan nan nan nan nan 0.0 0.0 0.0 nan nan nan 0.0 0.0 0.0 0.0 0.0 0.0 0.0 0.0 0.0 0.0 0.0 0.0 0.0 0.0 0.0 0.0 0.0 0.0 0.0 0.0 0.0 0.0 0.0 0.0
nan nan nan nan nan nan nan nan nan nan nan nan nan nan nan 0.0 0.0 0.0 nan nan nan 0.0 0.0 0.0 0.0 0.0 0.0 0.0 0.0 0.0 0.0 0.0 0.0 0.0 0.0 0.0 0.0 0.0 0.0 0.0 0.0 0.0 0.0 0.0 0.0
nan nan nan nan nan nan nan nan nan nan nan nan nan nan 0.0 0.0 0.0 0.0 nan nan 0.0 0.0 0.0 0.0 0.0 0.0 0.0 0.0 0.0 0.0 0.0 0.0 0.0 0.0 0.0 0.0 0.0 0.0 0.0 0.0 0.0 0.0 0.0 0.0 0.0
nan nan nan nan nan nan nan nan nan nan nan nan nan nan 0.0 0.0 0.0 0.0 0.0 0.0 0.0 0.0 0.0 0.0 0.0 0.0 0.0 0.0 0.0 0.0 0.0 0.0 0.0 0.0 0.0 0.0 0.0 0.0 0.0 0.0 0.0 0.0 0.0 0.0 0.0
nan nan nan nan nan nan nan nan nan nan nan nan nan 0.0 0.0 0.0 0.0 0.0 0.0 0.0 0.0 0.0 0.0 0.0 0.0 0.0 0.0 0.0 0.0 0.0 0.0 0.0 0.0 0.0 0.0 0.0 0.0 0.0 0.0 0.0 0.0 0.0 0.0 0.0 0.0
nan nan nan nan nan nan nan nan nan nan nan nan nan 0.0 0.0 0.0 0.0 0.0 0.0 0.0 0.0 0.0 0.0 0.0 0.0 0.0 0.0 0.0 0.0 0.0 0.0 0.0 0.0 0.0 0.0 0.0 0.0 0.0 0.0 0.0 0.0 0.0 0.0 0.0 0.0
nan nan nan nan nan nan nan nan nan nan nan nan 0.0 0.0 0.0 nan 0.0 0.0 0.0 0.0 0.0 0.0 0.0 0.0 0.0 0.0 0.0 0.0 0.1 0.0 0.0 0.0 0.0 0.0 0.0 0.0 0.0 0.0 0.0 0.0 0.0 0.0 0.0 0.0 0.0
nan nan nan nan nan nan nan nan nan nan 0.0 0.0 0.0 0.0 0.0 0.0 0.0 0.0 0.0 0.0 0.0 0.0 0.0 0.0 0.0 0.0 0.0 0.0 2.3 0.0 0.0 0.0 0.0 0.0 0.0 0.0 0.0 0.0 0.0 0.0 0.0 0.0 0.0 0.0 0.0
nan nan nan nan nan nan 0.0 0.0 0.0 0.0 0.0 0.0 0.0 0.0 0.0 0.0 0.0 0.0 0.0 0.0 0.0 0.0 0.0 0.0 0.0 0.2 0.0 0.0 0.0 0.0 0.1 0.0 0.0 0.0 0.0 0.0 0.0 0.0 0.0 0.0 0.0 0.0 0.0 0.0 0.0
nan nan nan nan nan nan 0.0 0.0 0.0 0.0 0.0 0.0 0.0 0.0 0.0 0.0 0.0 0.0 0.0 0.0 0.0 0.0 0.0 0.1 0.0 0.0 0.0 0.0 0.0 0.0 0.1 0.1 0.0 0.0 0.0 0.0 0.0 0.0 0.0 0.0 0.0 0.0 0.0 0.0 0.0
nan nan nan nan nan 0.0 0.0 0.0 0.0 0.0 0.0 0.0 0.0 0.0 0.0 0.0 0.0 0.0 0.0 0.0 0.0 0.0 0.0 0.1 0.0 0.0 0.0 0.0 0.0 0.0 0.1 0.0 0.0 0.0 0.0 0.0 0.4 0.1 0.0 0.0 0.0 0.0 0.0 0.0 0.1
nan nan nan nan nan 0.0 0.0 0.0 0.0 0.0 1.8 0.5 0.0 0.0 0.0 0.0 0.0 0.0 0.0 0.0 0.0 0.0 0.0 0.0 0.0 0.0 0.0 0.0 0.0 0.9 0.0 0.0 0.0 2.6 1.5 0.2 8.5 0.0 0.0 0.0 0.0 0.0 0.0 0.0 0.0
nan nan nan nan 0.0 0.0 0.0 0.0 0.0 0.0 39.1 0.0 0.0 0.0 0.0 0.0 0.0 0.0 0.0 0.0 0.0 0.0 0.2 0.0 0.0 0.0 1.2 0.0 0.0 1.5 0.0 0.0 0.1 1.7 2.6 0.2 5.7 0.1 0.0 0.0 0.0 0.0 0.0 0.1 0.1
nan nan nan 0.0 0.0 0.0 0.0 0.0 0.0 18.0 37.0 0.3 0.0 0.0 0.0 0.0 0.0 0.0 0.0 0.0 0.0 0.0 0.0 0.0 0.0 0.0 0.0 0.0 0.0 0.0 0.2 0.0 0.6 0.7 19.0 1.0 0.5 0.3 0.4 1.3 0.0 0.0 0.0 0.0 0.1
nan nan nan 0.0 0.0 0.0 0.0 0.0 28.9 55.0 0.2 0.1 0.2 0.0 0.0 0.0 0.0 0.0 0.0 0.2 0.9 6.8 0.6 0.1 0.0 0.0 0.0 0.1 0.0 0.2 0.7 15.4 21.1 28.2 10.8 0.2 0.4 0.5 0.2 0.3 0.4 0.4 0.1 0.3 0.1
nan nan nan 0.0 0.0 0.0 0.0 0.3 54.5 8.3 1.3 0.0 0.0 0.0 0.1 0.0 0.1 0.0 0.2 0.3 0.3 0.8 2.1 3.5 5.8 0.3 0.1 0.6 2.5 0.2 2.7 7.4 10.1 7.9 2.7 0.1 7.5 2.0 1.0 1.5 2.8 1.0 1.4 0.1 0.0
nan 0.0 0.0 0.0 0.0 0.0 0.0 42.1 19.2 0.9 0.1 0.0 0.0 0.6 0.4 0.0 0.4 0.0 0.1 0.1 0.0 0.1 8.1 4.8 1.6 0.0 0.1 0.1 0.1 0.8 3.0 0.2 6.5 4.3 7.6 2.1 0.3 0.2 0.1 0.8 1.0 2.3 0.0 0.1 0.1
0.0 0.0 0.0 0.0 0.0 0.0 8.2 nan 4.6 0.1 0.1 0.3 1.7 0.8 3.8 0.7 0.6 0.2 0.0 0.0 0.0 0.0 0.0 1.1 7.3 0.0 0.1 0.4 0.1 0.3 0.1 5.2 4.9 14.9 7.7 1.8 1.1 4.6 2.0 3.8 0.7 2.3 0.4 0.3 0.1
0.0 0.3 0.0 0.0 0.0 0.2 25.3 10.5 1.5 0.0 0.1 2.8 2.9 1.8 0.9 3.0 0.3 0.6 0.2 0.1 0.1 0.1 0.0 0.2 4.2 1.0 0.6 7.6 6.6 1.6 1.5 0.9 1.6 5.3 14.0 7.9 7.1 11.4 5.2 5.2 5.8 1.4 0.5 0.8 0.4
0.0 8.2 0.0 0.0 6.6 7.6 11.5 2.9 nan 0.4 0.2 0.4 0.2 0.9 2.0 2.7 1.9 0.7 0.7 0.1 0.0 0.1 0.4 0.3 2.4 9.0 6.2 4.0 0.8 0.6 4.1 1.7 10.3 7.0 5.8 8.4 9.0 6.5 6.7 7.3 3.8 1.3 0.7 0.5 0.5
1.1 0.2 0.0 0.0 25.1 14.4 3.7 3.0 0.5 0.9 1.4 0.5 0.4 0.3 1.3 4.4 7.7 1.3 0.4 0.2 0.0 0.3 1.0 1.2 1.8 8.9 7.2 4.3 0.8 3.1 1.7 2.5 2.3 3.6 9.1 11.8 9.9 5.8 5.8 4.0 2.3 3.4 1.4 1.0 1.0
0.4 8.0 2.7 0.2 0.3 1.2 3.1 3.2 4.7 0.7 0.7 0.6 0.5 0.2 2.9 5.4 1.3 4.5 0.7 0.5 0.1 0.1 nan nan 0.9 7.7 10.6 9.4 7.4 8.7 3.8 1.1 2.5 16.9 9.9 12.3 12.0 9.5 7.3 6.1 3.5 2.5 1.9 2.9 4.7
0.5 7.9 12.1 22.6 4.6 0.9 1.6 1.2 1.3 3.7 1.2 1.1 3.0 2.2 3.1 7.0 4.6 5.8 0.5 0.6 0.3 nan 0.4 1.0 7.4 5.4 6.5 6.5 10.5 9.7 7.5 4.0 7.0 8.7 9.4 13.5 13.2 14.3 12.3 10.9 9.7 8.2 6.1 5.9 7.8
0.8 1.1 1.7 4.4 0.2 0.8 1.3 1.7 0.3 0.7 1.9 2.5 3.3 1.7 2.7 6.0 1.9 8.2 0.4 0.1 0.1 0.5 0.6 0.7 5.8 5.4 6.1 5.5 8.6 8.3 5.0 3.8 2.9 3.8 5.2 7.2 11.1 13.2 13.2 11.8 12.3 12.8 10.9 12.5 12.9
0.0 0.0 0.2 nan 1.0 3.1 1.0 0.3 0.3 0.6 0.1 0.0 0.1 1.2 2.4 1.0 0.3 0.2 0.2 0.3 0.2 2.5 1.3 2.5 6.4 9.8 17.1 4.2 3.0 13.9 18.6 8.7 11.4 7.8 4.1 11.6 16.4 19.8 21.3 16.7 16.0 14.8 15.5 16.2 16.8
Water_Equivalent
nan nan nan nan nan nan nan nan nan nan nan nan nan nan nan nan nan 0.00 0.00 0.00 0.00 nan nan 0.00 0.00 0.00 0.00 0.00 0.00 0.00 0.00 0.00 0.00 0.00 0.00 0.00 0.00 0.00 0.00 0.00 0.00 0.00 0.00 0.00 0.00
nan nan nan nan nan nan nan nan nan nan nan nan nan nan nan nan 0.00 0.00 nan nan nan nan 0.00 0.00 0.00 0.00 0.00 0.00 0.00 0.00 0.00 0.00 0.00 0.00 0.00 0.00 0.00 0.00 0.00 0.00 0.00 0.00 0.00 0.00 0.00
nan nan nan nan nan nan nan nan nan nan nan nan nan nan nan 0.00 0.00 0.00 nan nan nan 0.00 0.00 0.00 0.00 0.00 0.00 0.00 0.00 0.00 0.00 0.00 0.00 0.00 0.00 0.00 0.00 0.00 0.00 0.00 0.00 0.00 0.00 0.00 0.00
nan nan nan nan nan nan nan nan nan nan nan nan nan nan nan 0.00 0.00 0.00 nan nan nan 0.00 0.00 0.00 0.00 0.00 0.00 0.00 0.00 0.00 0.00 0.00 0.00 0.00 0.00 0.00 0.00 0.00 0.00 0.00 0.00 0.00 0.00 0.00 0.00
nan nan nan nan nan nan nan nan nan nan nan nan nan nan 0.00 0.00 0.00 0.00 nan nan 0.00 0.00 0.00 0.00 0.00 0.00 0.00 0.00 0.00 0.00 0.00 0.00 0.00 0.00 0.00 0.00 0.00 0.00 0.00 0.00 0.00 0.00 0.00 0.00 0.00
nan nan nan nan nan nan nan nan nan nan nan nan nan nan 0.00 0.00 0.00 0.00 0.00 0.00 0.00 0.00 0.00 0.00 0.00 0.00 0.00 0.00 0.00 0.00 0.00 0.00 0.00 0.00 0.00 0.00 0.00 0.00 0.00 0.00 0.00 0.00 0.00 0.00 0.00
nan nan nan nan nan nan nan nan nan nan nan nan nan 0.00 0.00 0.00 0.00 0.00 0.00 0.00 0.00 0.00 0.00 0.00 0.00 0.00 0.00 0.00 0.00 0.00 0.00 0.00 0.00 0.00 0.00 0.00 0.00 0.00 0.00 0.00 0.00 0.00 0.00 0.00 0.00
nan nan nan nan nan nan nan nan nan nan nan nan nan 0.00 0.00 0.00 0.00 0.00 0.00 0.00 0.00 0.00 0.00 0.00 0.00 0.00 0.00 0.00 0.00 0.00 0.00 0.00 0.00 0.00 0.00 0.00 0.01 0.00 0.00 0.00 0.00 0.00 0.00 0.00 0.00
nan nan nan nan nan nan nan nan nan nan nan nan 0.00 0.00 0.00 nan 0.00 0.00 0.00 0.00 0.00 0.00 0.00 0.00 0.00 0.00 0.00 0.00 0.02 0.00 0.00 0.00 0.00 0.00 0.00 0.00 0.00 0.00 0.00 0.00 0.00 0.00 0.00 0.00 0.00
nan nan nan nan nan nan nan nan nan nan 0.00 0.00 0.00 0.00 0.00 0.00 0.00 0.00 0.00 0.00 0.00 0.00 0.00 0.00 0.00 0.00 0.00 0.00 0.61 0.01 0.00 0.00 0.00 0.00 0.00 0.00 0.00 0.00 0.00 0.00 0.00 0.00 0.00 0.00 0.00
nan nan nan nan nan nan 0.00 0.00 0.00 0.00 0.00 0.00 0.00 0.00 0.00 0.00 0.00 0.00 0.00 0.00 0.00 0.00 0.00 0.00 0.00 0.06 0.00 0.00 0.00 0.00 0.01 0.01 0.00 0.00 0.00 0.00 0.01 0.00 0.00 0.00 0.00 0.00 0.00 0.00 0.00
nan nan nan nan nan nan 0.00 0.00 0.00 0.00 0.00 0.00 0.00 0.00 0.00 0.00 0.00 0.00 0.00 0.00 0.00 0.00 0.00 0.02 0.01 0.00 0.00 0.00 0.00 0.00 0.01 0.02 0.00 0.00 0.00 0.00 0.01 0.01 0.00 0.00 0.00 0.00 0.00 0.00 0.01
nan nan nan nan nan 0.00 0.00 0.00 0.00 0.00 0.00 0.00 0.00 0.00 0.00 0.00 0.00 0.00 0.00 0.00 0.00 0.00 0.00 0.02 0.00 0.00 0.00 0.00 0.01 0.01 0.02 0.01 0.00 0.00 0.00 0.00 0.07 0.02 0.00 0.00 0.00 0.00 0.00 0.00 0.01
nan nan nan nan nan 0.00 0.00 0.00 0.00 0.00 0.59 0.12 0.00 0.00 0.00 0.00 0.00 0.00 0.00 0.00 0.00 0.00 0.00 0.00 0.00 0.00 0.00 0.00 0.00 0.18 0.00 0.00 0.01 0.43 0.26 0.04 1.09 0.00 0.00 0.00 0.00 0.00 0.00 0.00 0.01
nan nan nan nan 0.00 0.00 0.00 0.00 0.00 0.00 7.20 0.00 0.00 0.00 0.00 0.00 0.00 0.00 0.00 0.00 0.00 0.00 0.05 0.01 0.00 0.01 0.24 0.00 0.00 0.29 0.00 0.00 0.02 0.32 0.34 0.03 0.72 0.01 0.00 0.00 0.00 0.00 0.00 0.01 0.02
nan nan nan 0.00 0.00 0.00 0.00 0.00 0.00 4.88 7.56 0.06 0.00 0.00 0.00 0.00 0.00 0.00 0.00 0.00 0.00 0.00 0.00 0.01 0.00 0.01 0.01 0.00 0.00 0.00 0.03 0.00 0.12 0.15 2.92 0.14 0.08 0.05 0.06 0.17 0.00 0.00 0.00 0.00 0.02
nan nan nan 0.00 0.00 0.00 0.00 0.00 8.37 13.71 0.06 0.01 0.10 0.00 0.00 0.00 0.00 0.00 0.00 0.03 0.17 1.36 0.11 0.01 0.01 0.00 0.00 0.03 0.00 0.05 0.14 2.65 3.77 4.62 1.73 0.04 0.07 0.06 0.03 0.05 0.06 0.05 0.01 0.04 0.02
nan nan nan 0.00 0.00 0.00 0.00 0.09 14.57 2.69 0.42 0.00 0.00 0.00 0.04 0.00 0.01 0.00 0.03 0.05 0.06 0.14 0.36 0.72 1.32 0.07 0.03 0.12 0.44 0.04 0.43 1.07 1.10 1.02 0.44 0.02 1.10 0.33 0.15 0.22 0.38 0.14 0.21 0.02 0.01
nan 0.00 0.00 0.00 0.00 0.00 0.00 12.28 5.29 0.25 0.02 0.01 0.01 0.15 0.12 0.00 0.12 0.01 0.01 0.01 0.00 0.03 1.44 0.86 0.36 0.00 0.03 0.04 0.01 0.13 0.50 0.03 0.89 0.69 0.77 0.41 0.05 0.04 0.02 0.13 0.14 0.29 0.01 0.02 0.02
0.00 0.00 0.00 0.00 0.00 0.00 2.67 nan 1.69 0.02 0.03 0.08 0.38 0.21 1.02 0.22 0.14 0.05 0.01 0.00 0.00 0.01 0.00 0.23 1.18 0.00 0.02 0.12 0.02 0.05 0.02 0.74 0.93 2.09 0.93 0.26 0.16 0.67 0.28 0.48 0.08 0.30 0.06 0.05 0.02
0.00 0.13 0.00 0.00 0.00 0.09 8.05 3.39 0.50 0.00 0.03 0.68 0.70 0.38 0.19 0.73 0.06 0.15 0.04 0.01 0.02 0.02 0.01 0.04 0.68 0.19 0.10 1.62 1.20 0.26 0.23 0.13 0.23 0.79 1.59 0.87 1.09 1.99 0.55 0.52 0.55 0.20 0.08 0.11 0.07
0.00 3.24 0.00 0.00 2.58 3.02 3.57 1.06 nan 0.10 0.05 0.09 0.05 0.17 0.48 0.61 0.43 0.12 0.12 0.02 0.00 0.02 0.07 0.05 0.42 1.46 1.33 0.85 0.14 0.11 0.69 0.26 1.61 0.97 0.85 1.07 0.98 1.06 0.76 0.78 0.43 0.16 0.10 0.08 0.09
0.30 0.10 0.00 0.00 7.72 4.78 1.22 0.55 0.11 0.18 0.26 0.10 0.08 0.06 0.29 0.97 1.47 0.24 0.06 0.03 0.00 0.07 0.18 0.23 0.35 1.72 1.45 0.81 0.12 0.47 0.26 0.37 0.27 0.54 1.24 1.68 1.29 0.76 0.73 0.59 0.32 0.40 0.20 0.15 0.16
0.08 2.89 1.06 0.07 0.13 0.32 0.75 0.77 1.06 0.12 0.13 0.11 0.10 0.04 0.59 1.03 0.24 0.88 0.12 0.08 0.01 0.03 nan nan 0.15 0.96 1.47 1.45 1.25 1.09 0.50 0.15 0.34 2.99 1.47 1.30 1.28 1.04 0.80 0.78 0.50 0.41 0.25 0.35 0.54
0.12 3.01 4.69 7.47 1.51 0.20 0.30 0.26 0.33 0.80 0.20 0.20 0.45 0.46 0.61 1.14 0.73 0.98 0.08 0.09 0.05 nan 0.09 0.17 1.20 0.63 0.85 0.86 1.45 1.42 0.94 0.44 0.72 1.08 1.19 1.46 1.27 1.37 1.27 1.16 1.18 1.05 0.73 0.64 0.85
0.23 0.44 0.66 1.65 0.05 0.17 0.26 0.33 0.06 0.16 0.31 0.45 0.64 0.35 0.51 0.98 0.44 1.28 0.08 0.01 0.02 0.08 0.09 0.12 1.21 0.62 0.92 0.81 1.24 1.16 0.63 0.50 0.34 0.41 0.59 0.86 1.16 1.70 1.56 1.32 1.45 1.60 1.15 1.17 1.31
0.00 0.00 0.07 nan 0.25 0.78 0.29 0.07 0.07 0.12 0.02 0.00 0.02 0.24 0.39 0.24 0.06 0.05 0.04 0.05 0.05 0.36 0.19 0.36 0.89 2.15 3.65 0.55 0.39 2.61 2.06 1.02 1.33 0.91 0.50 1.13 2.48 2.61 2.47 1.68 1.78 1.59 1.51 1.54 1.91
SL_Ratio
nan nan nan nan nan nan nan nan nan nan nan nan nan nan nan nan nan nan nan nan nan nan nan nan nan nan nan nan nan nan nan nan nan nan nan nan nan nan nan nan nan nan nan nan nan
nan nan nan nan nan nan nan nan nan nan nan nan nan nan nan nan nan nan nan nan nan nan nan nan nan nan nan nan nan nan nan nan nan nan nan nan nan nan nan nan nan nan nan nan nan
nan nan nan nan nan nan nan nan nan nan nan nan nan nan nan nan nan nan nan nan nan nan nan nan nan nan nan nan nan nan nan nan nan nan nan nan nan nan nan nan nan nan nan nan nan
nan nan nan nan nan nan nan nan nan nan nan nan nan nan nan nan nan nan nan nan nan nan nan nan nan nan nan nan nan nan nan nan nan nan nan nan nan nan nan nan nan nan nan nan nan
nan nan nan nan nan nan nan nan nan nan nan nan nan nan nan nan nan nan nan nan nan nan nan nan nan nan nan nan nan nan nan nan nan nan nan nan nan nan nan nan nan nan nan nan nan
nan nan nan nan nan nan nan nan nan nan nan nan nan nan nan nan nan nan nan nan nan nan nan nan nan nan nan nan nan nan nan nan nan nan nan nan nan nan nan nan nan nan nan nan nan
nan nan nan nan nan nan nan nan nan nan nan nan nan nan nan nan nan nan nan nan nan nan nan nan nan nan nan nan nan nan nan nan nan nan nan nan nan nan nan nan nan nan nan nan nan
nan nan nan nan nan nan nan nan nan nan nan nan nan nan nan nan nan nan nan nan nan nan nan nan nan nan nan nan nan nan nan nan nan nan nan nan 6.0 nan nan nan nan nan nan nan nan
nan nan nan nan nan nan nan nan nan nan nan nan nan nan nan nan nan nan nan nan nan nan nan nan nan nan nan nan 3.5 nan 5.0 nan nan nan nan nan nan 0.0 nan nan nan nan nan nan nan
nan nan nan nan nan nan nan nan nan nan nan nan nan nan nan nan nan nan nan nan nan nan nan nan nan nan nan 4.0 3.9 3.5 5.0 5.0 nan nan nan 5.0 nan nan nan nan nan nan nan nan nan
nan nan nan nan nan nan nan nan nan nan nan nan nan nan nan nan nan nan nan nan nan nan nan nan nan 2.9 nan nan nan nan 4.8 4.7 nan nan 5.0 nan 5.0 nan nan nan nan nan nan nan nan
nan nan nan nan nan nan nan nan nan nan nan nan nan nan nan nan nan nan nan nan nan nan nan 3.1 3.1 nan nan nan nan nan 4.7 4.5 nan nan 5.0 4.0 5.6 4.4 nan nan nan nan nan nan 5.0
nan nan nan nan nan nan nan nan nan nan nan nan nan nan nan nan nan nan nan nan nan nan nan 3.0 nan nan nan nan 3.6 4.4 4.8 5.0 5.7 nan nan 5.0 6.2 5.2 4.0 nan nan nan 5.0 5.0 5.6
nan nan nan nan nan nan nan nan nan nan 3.1 4.3 nan nan nan nan nan nan nan nan nan 5.0 nan 5.0 nan nan nan 0.0 5.0 5.2 nan nan 3.7 6.2 6.0 5.4 7.8 nan nan nan nan nan 5.0 6.4 6.0
nan nan nan nan nan nan nan nan nan nan 5.4 nan nan nan nan nan nan nan nan nan 5.0 nan 3.3 3.7 5.0 4.0 4.9 0.0 nan 5.2 nan 3.3 4.4 5.3 7.6 6.1 8.0 6.7 nan nan nan nan 10.0 6.4 6.0
nan nan nan nan nan nan nan nan nan 3.7 4.9 5.8 nan nan nan nan nan nan nan nan nan 5.0 5.0 3.2 nan 3.4 3.5 nan nan 0.0 4.7 3.3 4.8 4.9 6.5 7.2 6.1 7.1 7.2 7.5 nan nan nan nan 5.8
nan nan nan nan nan nan nan nan 3.4 4.0 3.0 7.3 2.5 nan nan nan nan nan nan 6.4 5.2 5.0 5.7 3.9 3.5 nan 2.5 4.0 nan 3.8 5.1 5.8 5.6 6.1 6.3 5.6 5.3 7.4 6.5 6.5 6.7 7.6 6.3 5.9 5.3
nan nan nan nan nan nan nan 3.2 3.7 3.1 3.0 nan nan nan 3.3 nan 4.3 3.3 5.3 7.3 5.7 5.9 5.7 4.9 4.4 4.0 2.7 5.1 5.6 5.5 6.3 6.9 9.1 7.7 6.1 6.0 6.8 6.0 6.7 6.8 7.3 7.6 6.7 5.8 4.6
nan nan nan nan nan nan 2.5 3.4 3.6 3.5 6.2 3.8 5.0 3.9 3.6 3.3 3.5 6.3 7.8 5.7 5.0 4.2 5.6 5.6 4.5 3.6 3.3 3.6 3.8 5.9 6.0 6.0 7.2 6.2 9.8 5.1 6.3 5.9 5.4 6.0 7.3 7.9 4.3 4.5 4.7
nan nan nan nan nan nan 3.1 nan 2.7 5.0 4.3 3.8 4.4 4.1 3.7 3.2 4.3 4.0 5.4 5.0 nan 3.9 3.3 5.0 6.2 8.3 5.2 3.4 3.5 5.3 5.3 7.0 5.3 7.1 8.2 6.8 6.9 6.9 7.0 8.0 8.5 7.6 6.5 5.5 4.6
nan 2.5 nan nan nan 2.5 3.1 3.1 3.0 2.5 3.8 4.1 4.1 4.7 4.4 4.1 5.2 4.3 5.3 4.5 4.2 4.2 3.5 4.4 6.2 5.2 5.6 4.7 5.5 6.2 6.6 6.8 7.0 6.7 8.8 9.1 6.5 5.7 9.4 10.0 10.6 7.4 6.8 7.0 6.6
6.0 2.5 nan nan 2.5 2.5 3.2 2.8 nan 4.2 3.2 4.6 4.4 5.6 4.1 4.4 4.3 5.9 5.8 5.4 nan 4.2 6.0 5.2 5.8 6.2 4.6 4.7 5.5 6.0 6.0 6.4 6.4 7.2 6.8 7.8 9.3 6.1 8.9 9.4 8.9 8.0 7.0 6.0 6.0
3.7 2.6 nan nan 3.2 3.0 3.0 5.5 4.3 5.0 5.4 5.2 4.8 5.2 4.5 4.5 5.2 5.5 6.8 5.8 3.3 4.3 5.5 5.2 5.2 5.2 5.0 5.3 6.7 6.6 6.6 6.6 8.3 6.6 7.4 7.0 7.6 7.7 7.9 6.8 7.3 8.3 7.2 6.4 6.1
4.9 2.8 2.5 2.5 2.5 3.8 4.1 4.1 4.5 5.5 5.2 5.5 5.5 4.7 4.8 5.2 5.7 5.1 6.1 6.4 6.7 4.3 nan nan 5.8 8.0 7.2 6.5 5.9 8.0 7.6 7.9 7.5 5.7 6.7 9.4 9.4 9.1 9.2 7.8 6.9 6.1 7.4 8.3 8.7
3.9 2.6 2.6 3.0 3.0 4.6 5.5 4.5 4.0 4.6 5.7 5.6 6.6 4.7 5.1 6.2 6.2 5.9 6.5 6.8 6.0 nan 4.6 5.8 6.2 8.6 7.7 7.6 7.3 6.8 8.0 9.1 9.7 8.0 7.9 9.2 10.4 10.4 9.7 9.4 8.2 7.8 8.3 9.2 9.2
3.6 2.6 2.5 2.7 4.1 4.8 4.9 5.1 4.8 4.6 6.4 5.5 5.1 4.7 5.2 6.1 4.3 6.4 4.3 7.3 4.8 6.4 6.6 6.0 4.8 8.8 6.7 6.7 7.0 7.1 7.9 7.6 8.6 9.2 8.8 8.3 9.5 7.8 8.5 8.9 8.5 8.0 9.5 10.7 9.9
10.0 5.0 2.6 nan 4.1 3.9 3.3 4.7 4.5 4.6 3.4 3.3 4.1 4.8 6.2 4.2 4.5 4.1 5.0 5.6 5.3 6.8 6.6 6.9 7.2 4.6 4.7 7.6 7.6 5.3 9.0 8.5 8.6 8.6 8.3 10.3 6.6 7.6 8.6 9.9 9.0 9.3 10.3 10.5 8.8